Regional Weather Roundup
Issued by NWS

Home | Current Version | Previous Version | Graphics & Text | Print | Product List | Glossary On
Versions: 1 2 3 4 5 6 7 8 9 10 11 12 13 14 15 16 17 18 19 20 21 22 23 24 25 26 27 28 29 30 31 32 33 34 35 36 37 38 39 40 41 42 43 44 45 46 47 48 49 50
000
ASUS43 KLSX 200557
RWRMO

WEATHER SUMMARY FOR MISSOURI
NATIONAL WEATHER SERVICE SPRINGFIELD MO
100 AM CDT FRI OCT 20 2017

NOTE: "FAIR" INDICATES FEW OR NO CLOUDS BELOW 12,000 FEET WITH NO
       SIGNIFICANT WEATHER AND/OR OBSTRUCTIONS TO VISIBILITY.
       CURRENT SKY AND/OR WEATHER CONDITIONS ARE NOT AVAILABLE FOR
       CHILLICOTHE AND FARMINGTON.

MOZ001>031-035>038-043-044-053-054-200700-
...NORTHERN AND WESTERN MISSOURI...

CITY           SKY/WX    TMP DP  RH WIND       PRES   REMARKS
KANSAS CTY INT FAIR      60  52  74 S12       30.08S
6HR MIN TEMP:  56; 6HR MAX TEMP:  64;

LEE`S SUMMIT   FAIR      61  54  77 S13       30.10R
6HR MIN TEMP:  60; 6HR MAX TEMP:  71;

ST JOSEPH      FAIR      59  54  83 S6        30.06S
6HR MIN TEMP:  59; 6HR MAX TEMP:  67;

CHILLICOTHE      N/A     53  51  93 CALM      30.09F
6HR MIN TEMP:  53; 6HR MAX TEMP:  69;


$$
MOZ066>068-077>081-088>096-101>105-200700-
...SOUTHWEST MISSOURI...

CITY           SKY/WX    TMP DP  RH WIND       PRES   REMARKS
SPRINGFIELD    FAIR      59  49  69 S9        30.14S
6HR MIN TEMP:  59; 6HR MAX TEMP:  67;

JOPLIN         FAIR      56  52  86 S9        30.14R
6HR MIN TEMP:  56; 6HR MAX TEMP:  69;


$$
MOZ032>034-039>042-045>050-055>058-069>072-200700-
...CENTRAL MISSOURI...

CITY           SKY/WX    TMP DP  RH WIND       PRES   REMARKS
COLUMBIA       NOT AVBL
JEFFERSON CITY FAIR      51  49  92 SE3       30.13S
6HR MIN TEMP:  51; 6HR MAX TEMP:  68;

ROLLA          FAIR      62  50  64 S14       30.16S
6HR MIN TEMP:  62; 6HR MAX TEMP:  66;

SEDALIA        FAIR      57  52  83 S10       30.12S
6HR MIN TEMP:  55; 6HR MAX TEMP:  69;

WARRENSBURG    FAIR      55  50  82 S5        30.10S

$$
MOZ051-052-059>065-200700-
...EAST CENTRAL MISSOURI...

CITY           SKY/WX    TMP DP  RH WIND       PRES   REMARKS
ST LOUIS INTL  FAIR      63  51  65 S3        30.16S
6HR MIN TEMP:  63; 6HR MAX TEMP:  72;

SPIRIT OF STL  FAIR      50  50 100 CALM      30.15S FOG

$$
MOZ072>076-082>087-097>100-106>115-200700-
...SOUTH CENTRAL AND SOUTHEAST MISSOURI...

CITY           SKY/WX    TMP DP  RH WIND       PRES   REMARKS
CAPE GIRARDEAU FAIR      50  47  89 CALM      30.19F
6HR MIN TEMP:  50; 6HR MAX TEMP:  64;

POPLAR BLUFF   FAIR      50  49  96 CALM      30.19S FOG
6HR MIN TEMP:  50; 6HR MAX TEMP:  64;

WEST PLAINS    FAIR      56  49  77 S3        30.20F
6HR MIN TEMP:  56; 6HR MAX TEMP:  67;


$$



USA.gov is the U.S. government's official web portal to all federal, state and local government web resources and services.